Погода Мыс Стерлегова

Погода Мыс Стерлегова : погода сейчас, прогноз погоды и архив. Всё, что Вы хотите узнать о погоде Мыс Стерлегова!

Поиск расширенной информации на нашем сайте:

Другие новости

Новости СМИ2

Главная страница сайта

Новости сайта

03.07.2017

Напоминаем, что на нашем специализированном сайте Метеоцентр.Азия вы можете получить высокодетализированные автоматические прогнозы погоды по пунктам России, СНГ и мира в авиационном формате (включающие направление и скорость ветра, видимость, явления погоды, количество и форму облачности, нижнюю и верхнюю границу облачности).


Погода Мыс Стерлегова - сегодня

Время (UTC), дата Ветер
(°,м/с) 
Видим.   Явления Облачность Т
(°С)
Тd
(°С)
f(%) Тe
(°С)
Pmin
(гПа)
dP
(гПа)
Po
(мм)
O2
(г/м3)
Тmin Tmax R s Состояние
почвы
12 20.02.18 230 (ЮЗ) 20000 м    6/0 средняя, верхняя 
[Ac trans|Ci fib]
-31.1 -34.6 71 -32  1031.4  772  353    -31       
15 20.02.18 320 (СЗ) 20000 м    6/0 верхняя 
[Ci fib]
-29.2 -32.6 72 -30  1031.1  -0.2  772  350           
18 20.02.18 300 (СЗ) 20000 м    10/0 средняя, верхняя 
[Ac trans|Ci fib]
-28.6 -31.9 73 -29  1031.1  772  350           
21 20.02.18 360 (С) 20000 м    10/0 средняя 
[Ac und]
-25.2 -28.1 77 -26  1031.4  0.3  773  345           
00 21.02.18 360 (С) 20000 м    10/0 средняя 
[Ac und]
-22.6 -25.2 79 -26  1031.8  0.4  773  341  -31.1      25  неравномерный
сухой снег
100% 
03 21.02.18 340 (С) 20000 м    10/0 средняя, верхняя 
[Ac trans|Ci fib]
-24.1 -26.8 78 -25  1032.3  0.5  773  344           
06 21.02.18 040 (СВ) 20000 м    9/0 средняя, верхняя 
[Ac trans|Ci fib]
-23.2 -26 78 -26  1032.4  0.1  773  342           
09 21.02.18 030 (СВ) 20000 м    9/0 средняя, верхняя 
[Ac trans|Ci fib]
-21.9 -24.4 80 -22  1033.8  1.4  774  341           
15 21.02.18 040 (СВ) 20000 м    10/0 средняя, верхняя 
[Ac trans|Ci fib]
-20.7 -23.1 81 -28  1034.3  0.5  775  339           
18 21.02.18 030 (СВ) 20000 м    5/0 верхняя 
[Ci fib]
-22.7 -25.3 79 -30  1034.9  0.6  775  342           
21 21.02.18 030 (СВ) 20000 м    4/0 верхняя 
[Ci fib]
-25 -27.8 77 -33  1035.8  0.8  776  346           
00 22.02.18 010 (С) 20000 м    4/0 верхняя 
[Ci fib]
-25.4 -28.3 77 -30  1035.9  776  347  -25.5      25  неравномерный
сухой снег
100% 
03 22.02.18 360 (С) 20000 м    3/0 верхняя 
[Ci fib]
-26.2 -29.1 77 -30  1035.2  -0.6  775  347  -26.4         
06 22.02.18 010 (С) 20000 м    1/0 верхняя 
[Ci fib]
-26.5 -29.4 76 -33  1034.7  -0.5  775  348           
09 22.02.18 340 (С) 20000 м    6/0 средняя, верхняя 
[Ac trans|Ci fib]
-25.2 -28.1 77 -26  1034.7  775  346           
15 22.02.18 340 (С) 20000 м    10/10 420 м 
[Sc]
-20.9 -23.2 82 -21  1033.1  -0.5  774  339           
18 22.02.18 020 (С) 20000 м    10/10 210 м 
[St]
-16.9 -18.9 84 -23  1033.5  0.3  774  334           
21 22.02.18 050 (СВ) 20000 м  позёмок  10/10 300 м 
[St]
-18.2 -20.4 83 -26  1034.5  1.1  775  336           
00 23.02.18 050 (СВ) 20000 м  позёмок  10/0 средняя, верхняя 
[Ac trans|Ci fib]
-19.5 -21.8 82 -27  1035.6  1.1  776  338  -26.9      25  неравномерный
сухой снег
100% 
03 23.02.18 050 (СВ) 20000 м    4/0 средняя, верхняя 
[Ac lent|Ci fib]
-19.7 -22 82 -27  1036.7  1.1  776  339           
06 23.02.18 040 (СВ) 20000 м    10/0 средняя, верхняя 
[Ac trans|Ci fib]
-20.4 -22.8 81 -26  1037.4  0.7  777  340           
09 23.02.18 050 (СВ) 20000 м    10/0 средняя 
[Ac und]
-18.8 -21 83 -24  1038.2  0.8  778  338           
12 23.02.18 050 (СВ) 20000 м    10/0 средняя 
[Ac und]
-17.3 -19.4 84 -21  1038.9  0.7  778  336    -17.3       
15 23.02.18 070 (В) 20000 м    10/0 средняя 
[Ac und]
-16.9 -19 84 -21  1038.6  -0.2  778  336           
18 23.02.18 050 (СВ) 20000 м    10/0 средняя 
[Ac und]
-16.4 -18.3 85 -21  1038.4  -0.3  778  335           
Время (UTC), дата Ветер
(°,м/с) 
Видим.   Явления Облачность Т
(°С)
Тd
(°С)
f(%) Тe
(°С)
Pmin
(гПа)
dP
(гПа)
Po
(мм)
O2
(г/м3)
Тmin Tmax R s Состояние
почвы

Для получения пояснительной информации подведите курсор к названию столбца.

ПОГОДА Мыс Стерлегова - архив

Всё, что Вы хотите узнать о погоде Мыс Стерлегова - удобно и подробно!

Выберите нужную дату (начиная с 1 января 2015* года) и нажмите кнопку "Найти".
Будут отображены архивные сводки погоды по пункту Мыс Стерлегова, начиная с указанной даты.


Отображать данные в формате CSV (для использования в таблицах Excel)


Внимание! Наш архив погоды предназначен исключительно для личного некоммерческого использования в познавательных целях. Если Вам необходимы официальные справки о состоянии погоды (для производственных, юридических, коммерческих и т.п. целей), обращайтесь в органы Росгидромета.

*Примечание: данная дата относится к архиву по метеостанциям СССР (Россия, СНГ, Балтия).
Архив по метеостанциям Зарубежной Европы и Азии (кроме Китая) хранится 10 дней, по другим регионам земного шара (Китай, Африка, Америка, Австралия, Океания) - 1 день.

Мыс Стерлегова - район местоположения метеостанции


Название, широта, долгота, высота метеостанции:
Мыс Стерлегова 75.4°ш. 88.8°д. 10 м над ур. моря [Российская Федерация]

Дополнительная информация

В oтличие oт бoльшинства пoгoдных сайтoв мы публикуем пoдрoбную метеoинфoрмацию в детальнoм прoфессиoнальнoм фoрмате.

Характеристики температуры и влажнoсти вoздуха измеряются на высoте 2 м в тени вдали oт зданий и деревьев.
Скoрoсть ветра измеряется на высoте 10 м (на урoвне рoста челoвека скoрoсть ветра ниже в 1.5-2 раза). Если метеoстанция нахoдится в гoрoде или в лесу, тo скoрoсть ветра занижена на 2-4 м/с пo сравнению с oткрытым местoм. Скoрoсть ветра над акватoриями крупных рек и oзёр, а также на вершинах хoлмoв на 2-5 м/с выше, чем в oбычных услoвиях.
Атмoсфернoе давление в разных тoчках местнoсти мoжет значительнo oтличаться oт давления на метеoстанции, в зависимoсти oт услoвий рельефа (при пoдъёме на 10 м давление пoнижается примернo на 1 мм рт.ст.).